C/2018 A3 ( ATLAS )

Japanese version
Home page
Updated on February 13, 2018

---------------------------------------------------------------------

* Profile

Discovery Date January 10, 2018
Magnitude 18.7 mag
Discoverer Asteroid Terrestrial-impact Last Alert System (ATLAS) search program

* Pictures

* Orbital Elements

T 2019 Jan. 11.86506 TT                                 MPCW
q   3.2787996            (2000.0)            P               Q
                   Peri.   86.30216     -0.25005308     +0.95490435
                   Node   194.29359     +0.40339348     +0.25306121
e   1.0            Incl.  139.57482     +0.88019723     +0.15529875
From 101 observations 2018 Jan. 10-26.

* Finding Charts

* Magnitudes Graph

        m1 = 8.5 + 5 log d + 10.0 log r

---------------------------------------------------------------------

The orbital elements are published on M.P.E.C. 2018-B155.
The charts are made with StellaNavigator Ver.10 (AstroArts).
The magnitudes graphs are made with Comet for Windows.

---------------------------------------------------------------------

Copyright(C) Seiichi Yoshida (comet@aerith.net). All rights reserved.